Location: Benque
(43.2594°N, 0.9178°E)
Time: 20:44:37
(UTC+00:00)

YAOGAN 6 - Pass Details

Date: 24 January 2020
Orbit: 465 x 506 km, 97.0° (Epoch: 20 February)

Event Time Altitude Azimuth Distance (km) Brightness Sun altitude
Rises 18:15:20 0° 179° (S) 2,589 6.4 -14.3°
Reaches altitude 10° 18:17:28 10° 185° (S) 1,707 5.5 -14.6°
Maximum altitude 18:21:03 48° 261° (W) 657 3.7 -15.3°
Drops below altitude 10° 18:24:37 10° 337° (NNW) 1,704 5.5 -15.9°
Sets 18:26:44 0° 343° (NNW) 2,585 6.3 -16.3°
